User: anonymous   Login
Location: Caltech
(34.1382°N, 118.1253°W)
Time: 20:30:48
(UTC-08:00)
Language:

Cosmos 1697 Rocket - Orbit

View from above orbital plane
View from above orbital plane
View from above satellite
View from above satellite

Ground track
Ground track

The orbit data is extracted from the following two-line orbital elements,

1 16182U 85097B   17022.35210668 -.00000004  00000-0  22185-4 0  9997
2 16182  71.0046 314.8942 0009932 289.9272 204.1311 14.16210635615576
Epoch (UTC): 22 January 2017 08:27:02
Eccentricity: 0.0009932
inclination: 71.0046°
perigee height: 831 km
apogee height: 845 km
right ascension of ascending node: 314.8942°
argument of perigee: 289.9272°
revolutions per day: 14.16210635
mean anomaly at epoch: 204.1311°
orbit number at epoch: 61557

The dashed part of the orbit path shows where the satellite is in the earth's shadow,  

DLR